Location: Forli
(44.2227°N, 12.0407°E)
Time: 00:39:12
(UTC+02:00)

PCSat - Pass Details

Date: 18 April 2026
Orbit: 781 x 790 km, 67.1° (Epoch: 19 May)

Event Time Altitude Azimuth Distance (km) Brightness Sun altitude
Rises 01:21:30 0° 320° (NW) 3,293 13.4 -35.0°
Reaches altitude 10° 01:24:08 10° 310° (NW) 2,359 12.4 -34.9°
Enters shadow 01:25:25 16° 302° (WNW) 1,954 11.8 -34.9°
